When you browse on this site, cookies collect data to enhance your experience and personalize the content and advertising you see.
Visit our Privacy Policy to learn more. By continuing to use the site, you agree to this use of cookies and data.
  • In Hungary
  • List of Countries
  • For 7 days
  • Water Temperature
  • Satellite Maps
  • Weather Map
  • News
  • Weather Widgets
  • user-avatar
    Login

    Hourly Weather Elburg

    Today, 17 June, Monday

    Time Temperature Precipitation Wind Pressure Humidity
    00:00 +14°C° 0 mm 1 mps 765 mmHg 89%
    01:00 +14°C° 0 mm 2 mps 765 mmHg 89%
    02:00 +14°C° 0 mm 2 mps 765 mmHg 90%
    03:00 +13°C° 0 mm 2 mps 765 mmHg 90%
    04:00 +15°C° 0 mm 2 mps 765 mmHg 87%
    05:00 +16°C° 0 mm 3 mps 765 mmHg 84%
    06:00 +17°C° 0 mm 3 mps 765 mmHg 81%
    07:00 +19°C° 0 mm 3 mps 765 mmHg 75%
    08:00 +20°C° 0 mm 3 mps 765 mmHg 68%
    09:00 +22°C° 0 mm 3 mps 765 mmHg 62%
    10:00 +24°C° 0 mm 3 mps 765 mmHg 59%
    11:00 +25°C° 0 mm 3 mps 764 mmHg 57%
    12:00 +26°C° 0 mm 3 mps 764 mmHg 55%
    13:00 +26°C° 0 mm 3 mps 764 mmHg 55%
    14:00 +26°C° 0 mm 3 mps 763 mmHg 55%
    15:00 +26°C° 0 mm 3 mps 763 mmHg 55%
    16:00 +25°C° 0 mm 3 mps 763 mmHg 60%
    17:00 +25°C° 0 mm 2 mps 762 mmHg 66%
    18:00 +24°C° 0 mm 2 mps 762 mmHg 71%
    19:00 +21°C° 0 mm 2 mps 762 mmHg 77%
    20:00 +19°C° 0 mm 2 mps 762 mmHg 84%
    21:00 +17°C° 0 mm 2 mps 762 mmHg 90%
    22:00 +16°C° 0 mm 2 mps 762 mmHg 90%
    23:00 +16°C° 0 mm 2 mps 762 mmHg 91%

    Tomorrow, 18 June, Tuesday

    Time Temperature Precipitation Wind Pressure Humidity
    00:00 +15°C° 0 mm 2 mps 762 mmHg 91%
    01:00 +15°C° 0 mm 2 mps 762 mmHg 91%
    02:00 +15°C° 0 mm 2 mps 762 mmHg 91%
    03:00 +15°C° 0 mm 2 mps 761 mmHg 90%
    04:00 +16°C° 0 mm 2 mps 761 mmHg 87%
    05:00 +18°C° 0 mm 1 mps 761 mmHg 84%
    06:00 +19°C° 0 mm 1 mps 761 mmHg 81%
    07:00 +21°C° 0 mm 1 mps 761 mmHg 77%
    08:00 +22°C° 0 mm 1 mps 761 mmHg 72%
    09:00 +23°C° 0 mm 1 mps 761 mmHg 68%
    10:00 +24°C° 0.1 mm 1 mps 760 mmHg 66%
    11:00 +25°C° 0.1 mm 2 mps 760 mmHg 65%
    12:00 +25°C° 0.1 mm 2 mps 760 mmHg 63%
    13:00 +25°C° 0.6 mm 2 mps 760 mmHg 67%
    14:00 +25°C° 0.6 mm 3 mps 759 mmHg 70%
    15:00 +24°C° 0.6 mm 3 mps 759 mmHg 74%
    16:00 +22°C° 0.2 mm 3 mps 759 mmHg 77%
    17:00 +22°C° 0.2 mm 3 mps 759 mmHg 80%
    18:00 +21°C° 0.2 mm 4 mps 759 mmHg 84%
    19:00 +20°C° 0 mm 3 mps 759 mmHg 87%
    20:00 +18°C° 0 mm 3 mps 758 mmHg 90%
    21:00 +17°C° 0 mm 3 mps 758 mmHg 94%
    22:00 +16°C° 0.6 mm 3 mps 758 mmHg 95%
    23:00 +16°C° 0.6 mm 2 mps 757 mmHg 95%

    Day after tomorrow, 19 June, Wednesday

    Time Temperature Precipitation Wind Pressure Humidity
    00:00 +16°C° 0.6 mm 2 mps 757 mmHg 96%
    01:00 +16°C° 0.4 mm 2 mps 757 mmHg 96%
    02:00 +16°C° 0.4 mm 2 mps 756 mmHg 96%
    03:00 +16°C° 0.4 mm 2 mps 756 mmHg 96%
    04:00 +17°C° 0.1 mm 2 mps 756 mmHg 94%
    05:00 +18°C° 0.1 mm 2 mps 756 mmHg 92%
    06:00 +20°C° 0.1 mm 2 mps 755 mmHg 90%
    07:00 +21°C° 0.4 mm 2 mps 755 mmHg 86%
    08:00 +22°C° 0.4 mm 3 mps 755 mmHg 82%
    09:00 +23°C° 0.4 mm 4 mps 755 mmHg 78%
    10:00 +25°C° 0.2 mm 4 mps 755 mmHg 72%
    11:00 +26°C° 0.2 mm 4 mps 754 mmHg 66%
    12:00 +27°C° 0.2 mm 4 mps 754 mmHg 61%
    13:00 +27°C° 0.4 mm 5 mps 754 mmHg 62%
    14:00 +27°C° 0.4 mm 5 mps 753 mmHg 63%
    15:00 +26°C° 0.4 mm 6 mps 753 mmHg 64%
    16:00 +24°C° 0.1 mm 6 mps 753 mmHg 68%
    17:00 +23°C° 0.1 mm 6 mps 753 mmHg 72%
    18:00 +22°C° 0.1 mm 6 mps 753 mmHg 77%
    19:00 +20°C° 0 mm 6 mps 754 mmHg 80%
    20:00 +19°C° 0 mm 6 mps 755 mmHg 83%
    21:00 +16°C° 0 mm 6 mps 756 mmHg 86%
    22:00 +15°C° 0 mm 5 mps 756 mmHg 88%
    23:00 +14°C° 0 mm 4 mps 756 mmHg 90%

    20 June, Thursday

    Time Temperature Precipitation Wind Pressure Humidity
    00:00 +14°C° 0 mm 3 mps 756 mmHg 92%
    01:00 +14°C° 0 mm 3 mps 757 mmHg 93%
    02:00 +14°C° 0 mm 3 mps 757 mmHg 93%
    03:00 +14°C° 0 mm 3 mps 757 mmHg 94%
    04:00 +14°C° 0 mm 3 mps 758 mmHg 91%
    05:00 +16°C° 0 mm 3 mps 758 mmHg 89%
    06:00 +16°C° 0 mm 2 mps 758 mmHg 86%
    07:00 +17°C° 0 mm 2 mps 759 mmHg 81%
    08:00 +18°C° 0 mm 3 mps 759 mmHg 77%
    09:00 +19°C° 0 mm 3 mps 759 mmHg 73%
    10:00 +20°C° 0.2 mm 3 mps 759 mmHg 71%
    11:00 +20°C° 0.2 mm 3 mps 759 mmHg 69%
    12:00 +21°C° 0.2 mm 3 mps 759 mmHg 67%
    13:00 +20°C° 0.4 mm 3 mps 759 mmHg 69%
    14:00 +20°C° 0.4 mm 3 mps 759 mmHg 70%
    15:00 +20°C° 0.4 mm 3 mps 759 mmHg 72%
    16:00 +19°C° 0.1 mm 3 mps 760 mmHg 72%
    17:00 +19°C° 0.1 mm 3 mps 760 mmHg 72%
    18:00 +19°C° 0.1 mm 3 mps 760 mmHg 72%
    19:00 +17°C° 0 mm 2 mps 760 mmHg 74%
    20:00 +15°C° 0 mm 2 mps 760 mmHg 77%
    21:00 +13°C° 0 mm 1 mps 761 mmHg 80%
    22:00 +13°C° 0 mm 1 mps 761 mmHg 80%
    23:00 +13°C° 0 mm 1 mps 761 mmHg 81%

    21 June, Friday

    Time Temperature Precipitation Wind Pressure Humidity
    00:00 +12°C° 0 mm 1 mps 761 mmHg 81%
    01:00 +12°C° 0 mm 1 mps 761 mmHg 82%
    02:00 +12°C° 0 mm 2 mps 761 mmHg 83%
    03:00 +10°C° 0 mm 2 mps 761 mmHg 84%
    04:00 +13°C° 0 mm 2 mps 761 mmHg 83%
    05:00 +13°C° 0 mm 3 mps 761 mmHg 83%
    06:00 +14°C° 0 mm 3 mps 761 mmHg 82%
    07:00 +16°C° 0 mm 3 mps 761 mmHg 76%
    08:00 +18°C° 0 mm 3 mps 762 mmHg 69%
    09:00 +19°C° 0 mm 3 mps 762 mmHg 63%
    10:00 +19°C° 0.1 mm 3 mps 762 mmHg 64%
    11:00 +19°C° 0.1 mm 4 mps 762 mmHg 64%
    12:00 +19°C° 0.1 mm 4 mps 762 mmHg 65%
    13:00 +19°C° 0 mm 4 mps 762 mmHg 63%
    14:00 +20°C° 0 mm 4 mps 762 mmHg 60%
    15:00 +20°C° 0 mm 4 mps 762 mmHg 58%
    16:00 +19°C° 0 mm 4 mps 762 mmHg 62%
    17:00 +18°C° 0 mm 3 mps 762 mmHg 65%
    18:00 +18°C° 0 mm 3 mps 763 mmHg 68%
    19:00 +16°C° 0 mm 2 mps 763 mmHg 74%
    20:00 +14°C° 0 mm 2 mps 763 mmHg 79%
    21:00 +13°C° 0 mm 1 mps 764 mmHg 85%
    22:00 +12°C° 0 mm 1 mps 764 mmHg 86%
    23:00 +12°C° 0 mm 1 mps 764 mmHg 87%

    22 June, Saturday

    Time Temperature Precipitation Wind Pressure Humidity
    00:00 +10°C° 0 mm 0 mps 764 mmHg 88%
    01:00 +10°C° 0 mm 0 mps 764 mmHg 89%
    02:00 +10°C° 0 mm 0 mps 764 mmHg 89%
    03:00 +11°C° 0 mm 1 mps 764 mmHg 90%
    04:00 +12°C° 0 mm 1 mps 764 mmHg 85%
    05:00 +14°C° 0 mm 1 mps 764 mmHg 81%
    06:00 +14°C° 0 mm 0 mps 764 mmHg 77%
    07:00 +16°C° 0 mm 1 mps 764 mmHg 71%
    08:00 +19°C° 0 mm 1 mps 764 mmHg 66%
    09:00 +20°C° 0 mm 1 mps 764 mmHg 61%
    10:00 +21°C° 0.1 mm 1 mps 764 mmHg 59%
    11:00 +21°C° 0.1 mm 1 mps 764 mmHg 57%
    12:00 +21°C° 0.1 mm 2 mps 764 mmHg 55%
    13:00 +21°C° 0.1 mm 2 mps 764 mmHg 58%
    14:00 +20°C° 0.1 mm 3 mps 764 mmHg 60%
    15:00 +20°C° 0.1 mm 3 mps 764 mmHg 63%
    16:00 +20°C° 0.1 mm 3 mps 764 mmHg 67%
    17:00 +19°C° 0.1 mm 4 mps 764 mmHg 72%
    18:00 +18°C° 0.1 mm 4 mps 764 mmHg 76%
    19:00 +17°C° 0 mm 4 mps 764 mmHg 80%
    20:00 +14°C° 0 mm 4 mps 765 mmHg 84%
    21:00 +13°C° 0 mm 4 mps 765 mmHg 88%
    22:00 +12°C° 0 mm 4 mps 765 mmHg 86%
    23:00 +12°C° 0 mm 4 mps 765 mmHg 84%
    Show more